This is the latest recevied weather packets stored in our database for station/object JH7MHZ-13. If no packets are shown the sender has not sent any weather packets the latest 10 day(s).
| Time | Temp. | Humidity | Pressure | Rain* | Wind** | Luminosity | Snow |
|---|---|---|---|---|---|---|---|
| 1778036883 | 23.33° C | 38% | 998 hPa | 0 mm | - | - | - |
| 1778033284 | 22.78° C | 41% | 998.8 hPa | 0 mm | - | - | - |
| 1778029682 | 22.22° C | 41% | 999.2 hPa | 0 mm | - | - | - |
| 1778026081 | 21.11° C | 42% | 999.1 hPa | 0 mm | - | - | - |
| 1778018880 | 10° C | 82% | 999.9 hPa | 0 mm | - | - | - |
| 1778015280 | 7.78° C | 90% | 999.9 hPa | 0 mm | - | - | - |
| 1778011679 | 2.78° C | 95% | 999.2 hPa | 0 mm | - | - | - |
| 1778008078 | 2.78° C | 95% | 998.6 hPa | 0 mm | - | - | - |
| 1778004478 | 2.78° C | 94% | 998.9 hPa | 0 mm | - | - | - |
| 1778000877 | 3.89° C | 92% | 998.7 hPa | 0 mm | - | - | - |
| 1777997277 | 3.89° C | 91% | 998.1 hPa | 0 mm | - | - | - |
| 1777993676 | 5° C | 88% | 998.3 hPa | 0 mm | - | - | - |
| 1777990076 | 6.11° C | 86% | 997.6 hPa | 0 mm | - | - | - |
| 1777986475 | 7.78° C | 78% | 998.2 hPa | 0 mm | - | - | - |
| 1777982874 | 10.56° C | 65% | 998.5 hPa | 0 mm | - | - | - |
| 1777979274 | 11.67° C | 61% | 998.4 hPa | 0 mm | - | - | - |
| 1777975673 | 12.22° C | 68% | 997.9 hPa | 0 mm | - | - | - |
| 1777972073 | 13.89° C | 64% | 997.9 hPa | 0 mm | - | - | - |
| 1777968472 | 15° C | 60% | 997.4 hPa | 0 mm | - | - | - |
| 1777964872 | 16.67° C | 56% | 996.9 hPa | 0 mm | - | - | - |
| 1777961272 | 17.22° C | 58% | 997 hPa | 0 mm | - | - | - |
| 1777957672 | 16.67° C | 59% | 997.1 hPa | 0 mm | - | - | - |
| 1777954071 | 17.78° C | 57% | 996.5 hPa | 0 mm | - | - | - |
| 1777950471 | 16.67° C | 59% | 996.6 hPa | 0 mm | - | - | - |
| 1777943269 | 12.78° C | 74% | 997.2 hPa | 0 mm | - | - | - |
* Rain latest hour (hover to see other rain measurements)
** Current wind speed in m/s (hover to see current wind gust speed)